Location: Vinland
(47.7731°N, 122.6974°W)
Time: 04:52:04
(UTC+00:00)

Vanguard 2 - Pass Details

Date: 22 April 2024
Orbit: 552 x 2914 km, 32.9° (Epoch: 25 May)

Event Time Altitude Azimuth Distance (km) Brightness Sun altitude
Exits shadow 07:45:04 21° 125° (SE) 4,561 11.0 -29.6°
Drops below altitude 10° 07:53:17 10° 98° (E) 5,689 11.8 -29.7°
Sets 07:59:21 0° 86° (E) 6,765 12.4 -29.8°
